www.pogodaiklimat.ru

Погода и климат >> Архив погоды >> Великобритания >> Прествик


ПОГОДА в Прествике

  • Прогноз погоды в Прествике
  • Монитор погоды в Прествике

АРХИВ ПОГОДЫ в Прествике

Время (UTC), дата Ветер
(напр.,м/с)
 
Видим.   Явления Облачность Т
(С)
Тd
(С)
f
(%)
Тe
(С)
Тes
(С)
Комфортность P
(гПа)
Po
(гПа)
Тmin
(С)
Tmax
(С)
R
(мм)
R24
(мм)
S
(см)
22 11.06 С 2 50 км н/о +12.4 +7.5 72 +12 +12 1020.7 1017.4
23 11.06 СВ 4 50 км н/о +12.0 +7.7 75 +10 +10 1020.8 1017.5
00 12.06 СВ 5 45 км н/о +11.5 +7.2 75 +9 +9 1020.4 1017.1
01 12.06 СВ 3 50 км н/о +11.0 +6.8 75 +9 +9 1020.1 1016.8
02 12.06 СВ 3 50 км н/о +10.1 +6.6 79 +8 +8 1019.7 1016.4
03 12.06 С 3 50 км н/о +9.1 +5.7 79 +7 +7 1018.8 1015.5
04 12.06 С 2 50 км н/о +8.1 +5.2 82 +6 +6 1018.5 1015.2
05 12.06 С 2 50 км н/о +8.1 +5.9 86 +7 +7 1018.4 1015.0
06 12.06 С 1 50 км н/о +8.6 +6.3 85 +8 +8 1018.4 1015.1 +7.8
07 12.06 С 2 45 км н/о +9.9 +6.3 78 +8 +8 1017.9 1014.6
08 12.06 С 2 45 км н/о +12.2 +6.7 69 +11 +11 1017.5 1014.2
09 12.06 СВ 3 45 км н/о +12.9 +6.2 64 +12 +12 1017.1 1013.8
10 12.06 СВ 4 50 км н/о +14.5 +5.9 56 +13 +13 1016.9 1013.7
11 12.06 СВ 6 50 км н/о +15.2 +6.5 56 +14 +14 1016.1 1012.9
12 12.06 СВ 6 45 км н/о +15.0 +6.9 58 +13 +13 1015.6 1012.3
13 12.06 СВ 7 40 км н/о +14.2 +6.8 61 +12 +12 1015.3 1012.0
14 12.06 СВ 7 45 км н/о +14.3 +6.9 61 +12 +12 1014.9 1011.7
15 12.06 СВ 7 50 км н/о +13.8 +7.4 65 +12 +12 1014.5 1011.3
16 12.06 СВ 5 50 км н/о +13.6 +7.8 68 +12 +12 1014.1 1010.9
17 12.06 СВ 6 50 км н/о +13.4 +8.0 70 +11 +11 1013.7 1010.4
18 12.06 СВ 5 50 км н/о +12.7 +8.3 75 +11 +11 1013.4 1010.2 +15.5
19 12.06 СВ 4 50 км н/о +12.6 +8.5 76 +11 +11 1013.1 1009.9
20 12.06 СВ 5 50 км н/о +12.0 +8.6 80 +10 +10 1013.1 1009.9
21 12.06 СВ 5 50 км н/о +12.0 +8.3 78 +10 +10 1012.9 1009.7
22 12.06 СВ 5 50 км н/о +11.6 +8.2 80 +9 +9 1012.4 1009.1
23 12.06 СВ 4 50 км н/о +11.3 +7.9 80 +9 +9 1011.7 1008.4
00 13.06 СВ 4 50 км н/о +11.1 +6.9 75 +9 +9 1010.9 1007.6
01 13.06 СВ 4 50 км н/о +10.8 +6.6 75 +9 +9 1010.3 1007.0
02 13.06 СВ 4 50 км н/о +10.9 +6.2 73 +9 +9 1009.3 1006.0
03 13.06 С 2 50 км н/о +10.4 +6.5 77 +9 +9 1008.9 1005.6
04 13.06 С 3 50 км н/о +10.4 +5.8 73 +8 +8 1008.7 1005.5
05 13.06 С 3 50 км н/о +10.1 +6.0 76 +8 +8 1008.4 1005.1
06 13.06 С 2 50 км н/о +10.4 +6.1 75 +9 +9 1007.7 1004.5 +10.0
07 13.06 СВ 4 50 км н/о +10.8 +5.1 68 +9 +9 1007.1 1003.9
08 13.06 СВ 2 45 км н/о +10.8 +5.0 67 +10 +10 1006.7 1003.4
09 13.06 С 3 50 км н/о +11.0 +4.8 66 +9 +9 1006.0 1002.8
10 13.06 СВ 3 50 км н/о +12.0 +5.5 64 +11 +11 1005.3 1002.1
11 13.06 СВ 3 45 км н/о +11.7 +4.9 63 +10 +10 1005.0 1001.7
12 13.06 В 1 45 км н/о +11.8 +5.0 63 +12 +12 1004.4 1001.2
13 13.06 З 2 45 км н/о +12.0 +5.4 64 +12 +12 1003.8 1000.5
14 13.06 З 4 50 км н/о +11.3 +5.4 67 +9 +9 1003.5 1000.2
15 13.06 ЮЗ 4 45 км н/о +11.6 +5.8 68 +10 +10 1003.0 999.7
16 13.06 З 4 50 км н/о +11.2 +6.3 72 +9 +9 1002.7 999.4
17 13.06 ЮЗ 4 50 км н/о +11.2 +6.1 71 +9 +9 1002.3 999.0
18 13.06 ЮЗ 4 50 км н/о +11.4 +5.1 65 +10 +10 1002.0 998.7 +13.3
19 13.06 Ю 4 50 км н/о +10.9 +6.5 74 +9 +9 1001.9 998.7
20 13.06 ЮВ 2 50 км н/о +10.6 +6.8 77 +9 +9 1001.9 998.7
21 13.06 Ю 3 50 км н/о +10.4 +7.1 80 +9 +9 1002.1 998.9
22 13.06 Ю 3 45 км н/о +9.9 +7.0 82 +8 +8 1002.3 999.0
23 13.06 Ю 4 45 км в посл. час дождь н/о +9.7 +6.9 83 +7 +7 1002.3 999.1
00 14.06 Ю 4 45 км в посл. час дождь н/о +8.8 +6.6 86 +6 +6 1002.3 999.0 0.0
01 14.06 Ю 4 50 км в посл. час дождь н/о +8.2 +6.5 89 +5 +5 1002.0 998.8
02 14.06 Ю 4 12 км слаб. ливневой дождь н/о +8.0 +6.7 91 +5 +5 1002.1 998.8
03 14.06 Ю 5 22 км ливневой дождь н/о +7.8 +6.7 93 +4 +4 1002.0 998.8
04 14.06 Ю 4 40 км в посл. час дождь н/о +7.9 +6.8 93 +4 +4 1002.2 998.9
05 14.06 Ю 6 10 км ливневой дождь н/о +7.9 +6.7 92 +4 +4 1002.6 999.3
06 14.06 Ю 6 45 км в посл. час дождь н/о +8.4 +6.7 89 +4 +4 1003.1 999.8 +7.5 2
07 14.06 Ю 5 50 км в посл. час дождь н/о +9.8 +6.8 82 +7 +7 1003.3 1000.0
08 14.06 Ю 6 50 км н/о +10.9 +6.2 73 +8 +8 1003.6 1000.4
09 14.06 Ю 5 45 км н/о +12.1 +5.1 62 +10 +10 1003.9 1000.7
10 14.06 ЮЗ 6 35 км в посл. час дождь н/о +10.9 +5.6 70 +8 +8 1004.3 1001.1
11 14.06 З 5 35 км н/о +11.5 +6.2 70 +9 +9 1004.5 1001.2
12 14.06 З 6 45 км н/о +12.2 +5.9 65 +10 +10 1004.8 1001.5 0.0
13 14.06 З 7 45 км н/о +13.4 +6.0 61 +11 +11 1005.0 1001.7
14 14.06 ЮЗ 6 35 км н/о +13.1 +5.5 60 +11 +11 1005.1 1001.9
15 14.06 ЮЗ 6 50 км н/о +15.0 +4.5 49 +14 +14 1005.1 1001.9
16 14.06 З 4 40 км н/о +13.9 +6.5 61 +13 +13 1005.4 1002.2
17 14.06 Ю 7 40 км н/о +13.6 +5.9 60 +11 +11 1006.0 1002.8
18 14.06 ЮВ 5 40 км н/о +13.3 +7.9 70 +12 +12 1006.3 1003.0 +15.4 0.0
19 14.06 ЮВ 5 35 км н/о +13.1 +6.6 65 +11 +11 1006.3 1003.1
20 14.06 ЮВ 5 50 км н/о +12.6 +7.2 70 +11 +11 1006.5 1003.2
21 14.06 ЮВ 4 40 км н/о +12.0 +7.9 76 +10 +10 1006.8 1003.6
22 14.06 ЮВ 4 50 км в посл. час дождь н/о +11.8 +8.4 80 +10 +10 1007.0 1003.7
23 14.06 ЮВ 5 21 км н/о +11.8 +8.3 79 +9 +9 1007.0 1003.7
00 15.06 ЮВ 5 40 км н/о +12.1 +7.9 75 +10 +10 1006.7 1003.5 0.0
01 15.06 ЮВ 6 40 км в посл. час дождь н/о +11.9 +8.2 78 +9 +9 1006.9 1003.6
02 15.06 ЮВ 3 30 км н/о +11.7 +8.7 82 +10 +10 1006.8 1003.6
03 15.06 ЮВ 4 40 км в посл. час дождь н/о +11.5 +9.0 85 +9 +9 1006.9 1003.6
04 15.06 ЮВ 4 40 км слаб. ливневой дождь н/о +11.4 +8.8 84 +9 +9 1006.9 1003.6
05 15.06 ЮВ 3 40 км в посл. час дождь н/о +11.4 +8.7 83 +10 +10 1006.9 1003.7
06 15.06 В 2 45 км н/о +11.4 +8.7 83 +10 +10 1007.0 1003.7 +11.2 0.0
07 15.06 ЮВ 3 45 км в посл. час дождь н/о +11.5 +8.8 83 +10 +10 1007.2 1003.9
08 15.06 В 3 30 км в посл. час дождь н/о +11.7 +9.5 86 +10 +10 1007.2 1003.9
09 15.06 В 2 35 км в посл. час дождь н/о +13.4 +9.1 75 +13 +13 1007.1 1003.9
10 15.06 ЮВ 2 35 км н/о +13.9 +9.5 75 +13 +13 1006.9 1003.7
11 15.06 ЮВ 5 40 км н/о +14.7 +8.9 68 +13 +13 1006.9 1003.7
12 15.06 ЮВ 4 45 км н/о +14.3 +9.9 75 +13 +13 1007.2 1003.9 0.2
13 15.06 ЮВ 5 35 км н/о +15.8 +9.4 66 +15 +15 1006.7 1003.5
14 15.06 ЮВ 9
{13}
45 км н/о +15.5 +7.0 57 +14 +14 1006.9 1003.6
15 15.06 Ю 7
{13}
40 км н/о +14.4 +8.5 68 +12 +12 1007.1 1003.8
16 15.06 ЮВ 7
{13}
27 км н/о +13.6 +8.8 73 +11 +11 1007.1 1003.9
17 15.06 Ю 8 45 км н/о +13.3 +9.3 77 +11 +11 1007.4 1004.1
18 15.06 Ю 7 45 км н/о +13.0 +8.8 76 +10 +10 1007.7 1004.4 +17.2 0.2
19 15.06 Ю 6 50 км н/о +12.8 +8.5 75 +10 +10 1007.6 1004.4
20 15.06 Ю 6 45 км н/о +13.1 +8.3 73 +11 +11 1007.9 1004.7
21 15.06 Ю 4 45 км н/о +12.4 +7.5 72 +11 +11 1008.3 1005.1
22 15.06 Ю 3 45 км н/о +11.6 +7.5 76 +10 +10 1008.6 1005.3
23 15.06 ЮВ 2 50 км н/о +10.7 +7.3 79 +10 +10 1008.7 1005.4
00 16.06 ЮВ 2 50 км н/о +10.8 +7.0 77 +10 +10 1008.7 1005.4
01 16.06 ЮВ 3 40 км н/о +10.9 +7.6 80 +9 +9 1008.6 1005.3
02 16.06 ЮВ 3 45 км слаб. ливневой дождь н/о +10.4 +8.2 86 +8 +8 1008.1 1004.8
03 16.06 ЮВ 4 45 км в посл. час дождь н/о +10.2 +7.9 86 +8 +8 1007.9 1004.7
04 16.06 ЮВ 4 40 км н/о +10.0 +7.7 86 +7 +7 1007.9 1004.6
05 16.06 Ю 4 40 км н/о +10.7 +8.2 85 +8 +8 1008.1 1004.8
06 16.06 Ю 4 30 км н/о +11.2 +8.7 85 +9 +9 1008.4 1005.2 +9.9 0.0
07 16.06 Ю 4 45 км в посл. час дождь н/о +11.5 +8.7 83 +9 +9 1008.9 1005.6
08 16.06 Ю 4 50 км н/о +13.7 +8.2 69 +12 +12 1009.0 1005.7
09 16.06 ЮЗ 4 35 км н/о +13.1 +8.2 72 +11 +11 1009.0 1005.8
10 16.06 З 4 40 км н/о +13.2 +7.9 70 +12 +12 1009.0 1005.8
11 16.06 ЮЗ 4 23 км слаб. ливневой дождь н/о +12.5 +9.3 81 +11 +11 1009.2 1006.0
12 16.06 ЮЗ 5 50 км в посл. час дождь н/о +13.0 +8.5 74 +11 +11 1009.1 1005.9 0.0
13 16.06 З 4 40 км н/о +13.8 +8.3 69 +12 +12 1009.2 1005.9
14 16.06 З 3 35 км н/о +13.7 +9.3 75 +13 +13 1009.1 1005.9
15 16.06 Ю 7 50 км н/о +16.7 +6.5 51 +15 +15 1008.8 1005.6
16 16.06 Ю 7 30 км н/о +16.1 +7.4 56 +15 +15 1008.5 1005.3
17 16.06 Ю 7 35 км н/о +15.8 +8.3 61 +14 +14 1008.1 1004.9
18 16.06 Ю 8 50 км н/о +14.3 +8.5 68 +12 +12 1007.7 1004.4 +17.2 0.0
19 16.06 ЮВ 6 45 км н/о +14.4 +8.9 70 +13 +13 1007.4 1004.2
20 16.06 ЮВ 5 45 км н/о +14.0 +8.9 71 +12 +12 1006.8 1003.6
21 16.06 В 2 45 км в посл. час дождь н/о +12.9 +9.6 80 +12 +12 1005.9 1002.6
22 16.06 ЮВ 5 16 км слаб. морось с дождем н/о +12.0 +10.4 90 +10 +10 1004.8 1001.5
23 16.06 Ю 8 25 км в посл. час дождь н/о +13.4 +11.2 87 +11 +11 1005.0 1001.7
00 17.06 ЮЗ 9
{13}
50 км н/о +12.6 +10.1 85 +9 +9 1005.8 1002.5 1
01 17.06 Ю 7
{14}
50 км н/о +12.3 +9.7 84 +9 +9 1006.3 1003.1
02 17.06 Ю 8
{13}
50 км н/о +11.9 +9.4 85 +9 +9 1006.6 1003.4
03 17.06 ЮЗ 8
{14}
45 км н/о +11.4 +8.7 83 +8 +8 1006.9 1003.6
04 17.06 ЮЗ 6 50 км н/о +11.3 +8.7 84 +8 +8 1007.2 1004.0
05 17.06 Ю 6 30 км н/о +11.6 +9.1 85 +9 +9 1007.7 1004.5
06 17.06 Ю 5 40 км н/о +12.0 +9.2 83 +9 +9 1008.0 1004.8 +11.0 1
07 17.06 Ю 7 35 км н/о +12.8 +9.4 80 +10 +10 1008.3 1005.0
08 17.06 Ю 7 25 км н/о +13.4 +9.4 77 +11 +11 1008.3 1005.1
09 17.06 Ю 7 28 км н/о +15.0 +9.5 70 +13 +13 1008.1 1004.9
10 17.06 Ю 9
{14}
30 км н/о +15.3 +9.4 68 +13 +13 1008.0 1004.8
11 17.06 Ю 11
{14}
25 км н/о +16.5 +8.7 60 +15 +15 1008.2 1005.0
12 17.06 Ю 10
{14}
25 км н/о +17.0 +8.9 59 +15 +15 1008.1 1004.9
13 17.06 Ю 11
{16}
35 км в посл. час дождь н/о +17.1 +9.0 59 +15 +15 1008.1 1004.9
14 17.06 Ю 11-19
{19}
30 км н/о +16.3 +8.7 61 +14 +14 1008.5 1005.3
15 17.06 Ю 8
{19}
28 км в посл. час дождь н/о +13.7 +11.2 85 +11 +11 1009.1 1005.8
16 17.06 Ю 7 35 км в посл. час дождь н/о +14.2 +11.0 81 +12 +12 1009.2 1006.0
17 17.06 Ю 6 50 км в посл. час дождь н/о +14.7 +10.4 75 +13 +13 1009.4 1006.2
18 17.06 ЮЗ 6 28 км слаб. морось с дождем н/о +14.1 +10.3 78 +12 +12 1009.6 1006.4 +18.1 1
19 17.06 Ю 5 35 км в посл. час дождь н/о +14.0 +10.8 81 +12 +12 1009.8 1006.5
20 17.06 ЮЗ 5 25 км слаб. ливневой дождь н/о +13.6 +10.7 83 +12 +12 1010.0 1006.8
21 17.06 ЮЗ 5 26 км в посл. час дождь н/о +12.8 +11.0 89 +11 +11 1010.3 1007.0
22 17.06 Ю 3 30 км н/о +12.7 +11.0 89 +11 +11 1010.5 1007.2
23 17.06 Ю 3 35 км в посл. час дождь н/о +11.8 +9.9 88 +10 +10 1010.6 1007.3
00 18.06 Ю 3 50 км н/о +11.9 +9.4 85 +10 +10 1010.7 1007.5 0.6
01 18.06 Ю 3 50 км н/о +11.6 +9.3 86 +10 +10 1010.6 1007.3
02 18.06 Ю 2 50 км н/о +11.2 +9.0 86 +10 +10 1010.4 1007.1
03 18.06 Ю 4 50 км н/о +11.6 +9.5 87 +9 +9 1010.2 1007.0
04 18.06 Ю 6 40 км н/о +11.7 +9.3 85 +9 +9 1010.0 1006.8
05 18.06 Ю 5 45 км н/о +11.4 +9.2 86 +9 +9 1010.2 1006.9
06 18.06 ЮЗ 6 45 км н/о +11.5 +9.2 86 +8 +8 1010.2 1006.9 +11.1 0.6
07 18.06 ЮЗ 8 40 км н/о +12.9 +9.5 80 +10 +10 1010.5 1007.2
08 18.06 ЮЗ 9
{13}
50 км н/о +12.9 +8.7 76 +10 +10 1010.6 1007.3
09 18.06 ЮЗ 9
{13}
35 км н/о +13.5 +9.0 74 +11 +11 1010.7 1007.4
10 18.06 ЮЗ 9 35 км н/о +13.4 +8.4 72 +11 +11 1010.8 1007.6
11 18.06 ЮЗ 9 30 км н/о +14.6 +8.5 67 +12 +12 1010.9 1007.7
12 18.06 ЮЗ 8 30 км н/о +15.5 +8.9 65 +14 +14 1011.1 1007.9 0.2
13 18.06 ЮЗ 7 30 км н/о +16.4 +9.9 65 +15 +15 1011.0 1007.8
14 18.06 ЮЗ 6 29 км н/о +15.2 +8.5 64 +14 +14 1011.1 1007.9
15 18.06 ЮЗ 4 29 км н/о +15.4 +8.7 64 +14 +14 1010.9 1007.7
17 18.06 З 4 40 км н/о +15.2 +8.9 66 +14 +14 1010.4 1007.2
18 18.06 СЗ 4 30 км н/о +13.7 +10.0 78 +12 +12 1010.4 1007.2 +16.9 0.2
19 18.06 З 3 35 км н/о +13.4 +9.9 79 +12 +12 1010.4 1007.1
20 18.06 ЮЗ 1 30 км н/о +12.7 +9.7 82 +13 +13 1010.4 1007.2
21 18.06 С 1 24 км н/о +12.4 +10.2 86 +12 +12 1010.5 1007.2
22 18.06 ЮВ 3 17 км слаб. ливневой дождь н/о +12.2 +10.2 88 +11 +11 1010.3 1007.1

 

Местоположение метеостанции Прествик (Великобритания): широта 55.52 долгота -4.58 высота над уровнем моря 27 м.

В архиве по умолчанию представлена погода в Прествике за последнюю неделю. Архивные данные за месяц целиком и за предыдущие месяцы, начиная с января 2011 года, Вы можете получить, выбрав интересующий диапазон дат из раскрывающегося списка и нажав кнопку "Ввод!".


*Определитесь, кто Вы:
робот инопланетянин человек

Внимание! Время в таблицах - всемирное. Для получения местного времени необходимо прибавить поправку, которая равна 0 ч.

Смотрите также архив погоды в соседних городах и на ближайших метеорологических станциях:

Погода в Глазго (Великобритания) (42 км)
Погода в Друмалбине (Великобритания) (55 км)
Погода в Макрайханише (Великобритания) (71 км)
Погода в Аэропорту West Freugh (Великобритания) (78 км)
Погода в Дандреннане (Великобритания) (88 км)
Погода в Эдинбурге (Великобритания) (90 км)
Погода в Эскдейлмьюире (Великобритания) (90 км)
Погода в Гленогле (Великобритания) (101 км)
Погода в Страталлане (Великобритания) (104 км)
Погода в Порт-Эллене (Великобритания) (106 км)

Пояснения к столбцам:

Ветер - указаны скорость ветра в м/с - средняя за 10 мин, порывы в срок и между сроками (в фигурных скобках) и направление, откуда дует ветер: С - северный, СВ - северо-восточный, В - восточный, ЮВ - юго-восточный, Ю - южный, ЮЗ - юго-западный, З - западный, СЗ - северо-западный.
Видимость - горизонтальная дальность видимости в метрах или километрах. При видимости от 1 до 10 км при отсутствии осадков обычно наблюдается дымка, при ухудшении видимости до 1 км и менее - туман. В сухую погоду видимость может ухудшаться дымом, пылью или мглою.
Явления - указаны атмосферные явления, наблюдавшиеся в срок или в последний час перед сроком; фигурными скобками обозначены явления, наблюдавшиеся между сроками (за 1-3 часа до срока); квадратными скобками обозначены град или гололедные отложения с указанием их диаметра в мм.
Облачность - указаны через наклонную черту общая и нижняя облачность в баллах и высота нижней границы облаков в метрах; квадратными скобками обозначены формы облаков: Ci - перистые, Cs - перисто-слоистые, Cc - перисто-кучевые, Ac - высококучевые, As - высокослоистые, Sc - слоисто-кучевые, Ns - слоисто-дождевые, Cu - кучевые, Cb - кучево-дождевые. Подробнее классификацию облаков см. в Атласе облаков (PDF).
T - Температура воздуха - температура, измеренная на высоте 2 м над землей.
Td - Температура точки росы - температура, при понижении до которой содержащийся в воздухе водяной пар достигнет насыщения.
f - Относительная влажность воздуха - влажноcть воздуха, измеренная на высоте 2 м над землей.
Te - Эффективная температура - температура, которую ощущает одетый по сезону человек в тени. Характеристика душности погоды. При расчете учитывается влияние влажности воздуха и скорости ветра на теплоощущения человека.
Tes - Эффективная температура на солнце - температура, которую ощущает человек, с поправкой на солнечный нагрев. Характеристика знойности погоды. Зависит от высоты солнца над горизонтом, облачности и скорости ветра. Ночью, в пасмурную погоду, а также при ветре 12 м/с и более поправка равна нулю.
P - Атмосферное давление - приведенное к уровню моря атмосферное давление.
Po - Атмосферное давление - измеренное на уровне метеостанции атмосферное давление.
Tmin - Минимальная температура - минимум температуры воздуха на высоте 2 м над землей.
Tmax - Максимальная температура - максимум температуры воздуха на высоте 2 м над землей.
R - Количество осадков - Количество выпавших осадков за период времени, мм. При наведении курсора мыши на число - период времени, за который выпало указанное количество осадков.
R24 - Количество осадков - Количество выпавших осадков за 24 часа, мм.
S - Снежный покров - Высота снежного покрова, см. При наведении курсора мыши на число - состояние снежного покрова и степень покрытия местности в баллах.